Location: Malvern Link
(52.1333°N, 2.3000°W)
Time: 18:43:05
(UTC+00:00)

AO-7 - Visible Passes

Search period start: 29 June 2022 00:00
Search period end: 09 July 2022 00:00
Orbit: 1439 x 1459 km, 101.9° (Epoch: 28 June)

Date Brightness Start Highest point End Pass type
(mag) Time Alt. Az. Time Alt. Az. Time Alt. Az.
30 Jun ? 02:52:05 10° NE 02:57:02 17° E 03:01:58 10° ESE visible
02 Jul ? 02:45:27 10° NE 02:49:49 15° E 02:54:10 10° ESE visible
04 Jul ? 02:38:54 10° NE 02:42:35 13° E 02:46:14 10° ESE visible
06 Jul ? 02:32:36 10° ENE 02:35:20 12° E 02:38:02 10° E visible
08 Jul ? 02:27:04 10° ENE 02:28:04 10° ENE 02:29:04 10° E visible
